Location: Silent Lake
(44.9206°N, 78.0708°W)
Time: 17:20:41
(UTC-04:00)

Cosmos 1610 Rocket - Pass Details

Date: 19 April 2018
Orbit: 954 x 1002 km, 82.9° (Epoch: 18 September)

Event Time Altitude Azimuth Distance (km) Brightness Sun altitude
Rises 20:43:33 0° 182° (S) 3,615 7.3 -7.6°
Reaches altitude 10° 20:46:01 10° 182° (S) 2,674 6.6 -8.0°
Maximum altitude 20:52:08 81° 96° (E) 974 4.4 -8.9°
Drops below altitude 10° 20:58:19 10° 10° (N) 2,707 7.1 -9.9°
Sets 21:00:50 0° 10° (N) 3,663 7.8 -10.3°
